| time (UTC) | temp F | wind direction | speed MPH | gust MPH | rain 1hr in | rain 24hr in | rain mn in | humidity % | barometer mb |
| 20260904231541 | 75 | 334 | 9.0 | 13.0 | 0.00 | 0.00 | 0.00 | 36 | 1014.0 |
| 20260904224538 | 74 | 292 | 7.0 | 13.0 | 0.00 | 0.00 | 0.00 | 38 | 1013.9 |
| 20260904223040 | 74 | 247 | 6.0 | 11.0 | 0.00 | 0.00 | 0.00 | 39 | 1013.8 |
| 20260904221539 | 75 | 308 | 6.0 | 8.0 | 0.00 | 0.00 | 0.00 | 36 | 1013.6 |
| 20260904220038 | 74 | 277 | 4.0 | 12.0 | 0.00 | 0.00 | 0.00 | 38 | 1014.0 |
| 20260904214536 | 75 | 271 | 4.0 | 8.0 | 0.00 | 0.00 | 0.00 | 37 | 1013.8 |
| 20260904213034 | 76 | 314 | 6.0 | 9.0 | 0.00 | 0.00 | 0.00 | 38 | 1013.7 |
| 20260904211538 | 76 | 307 | 4.0 | 9.0 | 0.00 | 0.00 | 0.00 | 35 | 1013.7 |
| 20260904210035 | 76 | 355 | 4.0 | 9.0 | 0.00 | 0.00 | 0.00 | 35 | 1013.5 |
| 20260904204538 | 76 | 0 | 1.0 | 6.0 | 0.00 | 0.00 | 0.00 | 37 | 1013.4 |
| 20260904203038 | 76 | 333 | 5.0 | 11.0 | 0.00 | 0.00 | 0.00 | 36 | 1013.5 |
| 20260904201533 | 75 | 360 | 7.0 | 13.0 | 0.00 | 0.00 | 0.00 | 37 | 1013.3 |
| 20260904200050 | 75 | 342 | 6.0 | 14.0 | 0.00 | 0.00 | 0.00 | 39 | 1013.3 |
| 20260904194537 | 76 | 301 | 9.0 | 13.0 | 0.00 | 0.00 | 0.00 | 37 | 1013.2 |
| 20260904193038 | 75 | 225 | 4.0 | 17.0 | 0.00 | 0.00 | 0.00 | 38 | 1013.1 |
| 20260904191542 | 74 | 355 | 3.0 | 10.0 | 0.00 | 0.00 | 0.00 | 39 | 1013.0 |
| 20260904190044 | 73 | 309 | 5.0 | 10.0 | 0.00 | 0.00 | 0.00 | 39 | 1013.1 |
| 20260904184537 | 73 | 290 | 3.0 | 10.0 | 0.00 | 0.00 | 0.00 | 40 | 1013.1 |
| 20260904183050 | 71 | 344 | 5.0 | 11.0 | 0.00 | 0.00 | 0.00 | 41 | 1013.1 |
| 20260904181540 | 71 | 338 | 6.0 | 15.0 | 0.00 | 0.00 | 0.00 | 42 | 1013.2 |
| 20260904180040 | 70 | 323 | 5.0 | 9.0 | 0.00 | 0.00 | 0.00 | 44 | 1013.1 |
| 20260904174537 | 69 | 283 | 5.0 | 11.0 | 0.00 | 0.00 | 0.00 | 47 | 1013.1 |
| 20260904173035 | 68 | 304 | 5.0 | 10.0 | 0.00 | 0.00 | 0.00 | 47 | 1013.1 |
| 20260904171545 | 67 | 310 | 3.0 | 10.0 | 0.00 | 0.00 | 0.00 | 48 | 1013.0 |
| 20260904170042 | 66 | 317 | 7.0 | 12.0 | 0.00 | 0.00 | 0.00 | 49 | 1013.1 |
| 20260904164546 | 65 | 227 | 6.0 | 13.0 | 0.00 | 0.00 | 0.00 | 49 | 1013.0 |
| 20260904163034 | 65 | 277 | 6.0 | 12.0 | 0.00 | 0.00 | 0.00 | 52 | 1012.9 |
| 20260904161545 | 64 | 289 | 7.0 | 14.0 | 0.00 | 0.00 | 0.00 | 53 | 1012.7 |
| 20260904160038 | 63 | 267 | 9.0 | 12.0 | 0.00 | 0.00 | 0.00 | 56 | 1012.5 |
| 20260904154536 | 61 | 282 | 5.0 | 13.0 | 0.00 | 0.00 | 0.00 | 58 | 1012.2 |
| 20260904153056 | 61 | 261 | 7.0 | 13.0 | 0.00 | 0.00 | 0.00 | 58 | 1012.0 |
| 20260904151545 | 59 | 252 | 7.0 | 14.0 | 0.00 | 0.00 | 0.00 | 61 | 1011.9 |
| 20260904150042 | 57 | 277 | 7.0 | 14.0 | 0.00 | 0.00 | 0.00 | 61 | 1011.4 |
| 20260904144538 | 57 | 271 | 5.0 | 9.0 | 0.00 | 0.00 | 0.00 | 64 | 1011.3 |
| 20260904143036 | 55 | 260 | 6.0 | 9.0 | 0.00 | 0.00 | 0.00 | 64 | 1010.9 |
| 20260904141538 | 56 | 286 | 6.0 | 10.0 | 0.00 | 0.00 | 0.00 | 65 | 1010.5 |
| 20260904140039 | 56 | 280 | 3.0 | 8.0 | 0.00 | 0.00 | 0.00 | 65 | 1010.0 |
| 20260904134538 | 53 | 0 | 1.0 | 4.0 | 0.00 | 0.00 | 0.00 | 70 | 1009.8 |
| 20260904133037 | 52 | 0 | 0.0 | 3.0 | 0.00 | 0.00 | 0.00 | 74 | 1009.6 |
| 20260904131541 | 51 | 0 | 0.0 | 0.0 | 0.00 | 0.00 | 0.00 | 76 | 1009.5 |
| 20260904130037 | 50 | 0 | 0.0 | 0.0 | 0.00 | 0.00 | 0.00 | 75 | 1009.6 |
| 20260904124535 | 50 | 0 | 0.0 | 0.0 | 0.00 | 0.00 | 0.00 | 76 | 1009.4 |
| 20260904123037 | 50 | 0 | 0.0 | 4.0 | 0.00 | 0.00 | 0.00 | 75 | 1009.5 |
| 20260904121535 | 50 | 291 | 2.0 | 5.0 | 0.00 | 0.00 | 0.00 | 75 | 1009.8 |
| 20260904120039 | 50 | 291 | 3.0 | 7.0 | 0.00 | 0.00 | 0.00 | 75 | 1009.8 |
| 20260904114536 | 50 | 287 | 3.0 | 5.0 | 0.00 | 0.00 | 0.00 | 74 | 1009.7 |
| 20260904113042 | 51 | 287 | 3.0 | 4.0 | 0.00 | 0.00 | 0.00 | 73 | 1009.6 |
| 20260904111538 | 50 | 287 | 2.0 | 5.0 | 0.00 | 0.00 | 0.00 | 73 | 1009.5 |
| 20260904110037 | 51 | 287 | 4.0 | 5.0 | 0.00 | 0.00 | 0.00 | 71 | 1009.6 |
| 20260904104536 | 52 | 287 | 2.0 | 4.0 | 0.00 | 0.00 | 0.00 | 70 | 1009.5 |
| 20260904103049 | 52 | 287 | 2.0 | 5.0 | 0.00 | 0.00 | 0.00 | 67 | 1009.8 |
| 20260904101548 | 53 | 296 | 5.0 | 9.0 | 0.00 | 0.00 | 0.00 | 66 | 1009.8 |
| 20260904100035 | 53 | 298 | 1.0 | 3.0 | 0.00 | 0.00 | 0.00 | 66 | 1010.2 |
| 20260904094556 | 53 | 0 | 2.0 | 5.0 | 0.00 | 0.00 | 0.00 | 65 | 1010.2 |
| 20260904093038 | 53 | 0 | 0.0 | 4.0 | 0.00 | 0.00 | 0.00 | 64 | 1010.3 |
| 20260904091538 | 52 | 298 | 2.0 | 7.0 | 0.00 | 0.00 | 0.00 | 66 | 1010.4 |
| 20260904090037 | 53 | 327 | 1.0 | 4.0 | 0.00 | 0.00 | 0.00 | 64 | 1010.4 |
| 20260904084539 | 54 | 0 | 0.0 | 3.0 | 0.00 | 0.00 | 0.00 | 61 | 1010.5 |
| 20260904083042 | 54 | 0 | 0.0 | 0.0 | 0.00 | 0.00 | 0.00 | 63 | 1010.6 |
| 20260904081539 | 54 | 0 | 0.0 | 0.0 | 0.00 | 0.00 | 0.00 | 59 | 1010.6 |
| 20260904080038 | 55 | 0 | 0.0 | 0.0 | 0.00 | 0.00 | 0.00 | 58 | 1010.8 |
| 20260904074539 | 55 | 0 | 0.0 | 0.0 | 0.00 | 0.00 | 0.00 | 58 | 1011.0 |
| 20260904073035 | 55 | 0 | 0.0 | 3.0 | 0.00 | 0.00 | 0.00 | 58 | 1011.1 |
| 20260904071534 | 55 | 0 | 0.0 | 1.0 | 0.00 | 0.00 | 0.00 | 58 | 1011.2 |
| 20260904070035 | 57 | 0 | 0.0 | 7.0 | 0.00 | 0.00 | 0.00 | 53 | 1011.3 |
| 20260904064537 | 59 | 48 | 2.0 | 5.0 | 0.00 | 0.00 | 0.00 | 51 | 1011.4 |
| 20260904063035 | 60 | 46 | 4.0 | 12.0 | 0.00 | 0.00 | 0.00 | 49 | 1011.3 |
| 20260904061535 | 60 | 40 | 3.0 | 6.0 | 0.00 | 0.00 | 0.00 | 50 | 1011.4 |
| 20260904060052 | 61 | 55 | 1.0 | 10.0 | 0.00 | 0.00 | 0.00 | 49 | 1011.6 |
| 20260904054553 | 62 | 0 | 2.0 | 12.0 | 0.00 | 0.00 | 0.00 | 48 | 1011.3 |
| 20260904053042 | 61 | 62 | 3.0 | 9.0 | 0.00 | 0.00 | 0.00 | 49 | 1011.2 |
| 20260904051537 | 62 | 32 | 5.0 | 8.0 | 0.00 | 0.00 | 0.00 | 48 | 1011.6 |
| 20260904050039 | 63 | 21 | 3.0 | 10.0 | 0.00 | 0.00 | 0.00 | 47 | 1011.8 |
| 20260904044543 | 63 | 28 | 5.0 | 10.0 | 0.00 | 0.00 | 0.00 | 47 | 1011.8 |
| 20260904043041 | 64 | 0 | 1.0 | 5.0 | 0.00 | 0.00 | 0.00 | 45 | 1012.1 |
| 20260904041539 | 64 | 11 | 2.0 | 7.0 | 0.00 | 0.00 | 0.00 | 44 | 1012.2 |
| 20260904040041 | 63 | 336 | 0.0 | 3.0 | 0.00 | 0.00 | 0.00 | 45 | 1012.0 |
| 20260904034534 | 64 | 336 | 2.0 | 4.0 | 0.00 | 0.00 | 0.00 | 46 | 1012.1 |
| 20260904033040 | 65 | 349 | 0.0 | 4.0 | 0.00 | 0.00 | 0.00 | 43 | 1011.9 |
| 20260904031536 | 65 | 333 | 1.0 | 6.0 | 0.00 | 0.00 | 0.00 | 43 | 1012.1 |
| 20260904030037 | 66 | 342 | 3.0 | 9.0 | 0.00 | 0.00 | 0.00 | 42 | 1011.9 |
| 20260904024536 | 66 | 336 | 5.0 | 9.0 | 0.00 | 0.00 | 0.00 | 40 | 1011.6 |
| 20260904023039 | 67 | 344 | 5.0 | 10.0 | 0.00 | 0.00 | 0.00 | 40 | 1011.3 |
| 20260904021537 | 67 | 333 | 5.0 | 10.0 | 0.00 | 0.00 | 0.00 | 39 | 1011.2 |
| 20260904020038 | 68 | 345 | 6.0 | 10.0 | 0.00 | 0.00 | 0.00 | 37 | 1011.1 |
| 20260904014611 | 69 | 322 | 4.0 | 9.0 | 0.00 | 0.00 | 0.00 | 38 | 1010.9 |
| 20260904013044 | 70 | 322 | 5.0 | 8.0 | 0.00 | 0.00 | 0.00 | 37 | 1010.9 |
| 20260904011538 | 73 | 332 | 2.0 | 4.0 | 0.00 | 0.00 | 0.00 | 36 | 1010.7 |
| 20260904010035 | 74 | 318 | 4.0 | 9.0 | 0.00 | 0.00 | 0.00 | 31 | 1010.6 |
| 20260904004535 | 75 | 319 | 6.0 | 10.0 | 0.00 | 0.00 | 0.00 | 32 | 1010.4 |
| 20260904003037 | 74 | 296 | 6.0 | 9.0 | 0.00 | 0.00 | 0.00 | 33 | 1010.4 |
| 20260904001538 | 74 | 268 | 4.0 | 9.0 | 0.00 | 0.00 | 0.00 | 32 | 1010.4 |
| 20260904000035 | 74 | 288 | 2.0 | 12.0 | 0.00 | 0.00 | 0.00 | 33 | 1010.4 |
| 20260903234543 | 76 | 315 | 7.0 | 13.0 | 0.00 | 0.00 | 0.00 | 31 | 1010.4 |
| 20260903233036 | 76 | 314 | 6.0 | 13.0 | 0.00 | 0.00 | 0.00 | 32 | 1010.6 |